Regional Weather Roundup
Issued by NWS

Home | Current Version | Previous Version | Text Only | Print | Product List | Glossary On
Versions: 1 2 3 4 5 6 7 8 9 10 11 12 13 14 15 16 17 18 19 20 21 22 23 24 25 26 27 28
000
ASUS42 KKEY 290610
RWRKEY

FLORIDA REGIONAL WEATHER ROUNDUP FOR THE FLORIDA KEYS
NATIONAL WEATHER SERVICE KEY WEST FLORIDA
200 AM EDT MON MAY 29 2017

...SOUTH FLORIDA AND THE KEYS...

CITY           SKY/WX    TMP DP  RH WIND       PRES   REMARKS
FORT MYERS     CLEAR     79  76  90 W5        30.01F
SW REGIONAL AP CLEAR     76  73  91 CALM      30.01F
NAPLES         CLEAR     79  74  84 CALM      30.01F
MIAMI          PTCLDY    81  69  67 W3        30.03S
WEST KENDALL     N/A    N/A N/A N/A MISG        N/A
HOMESTEAD      CLEAR     76  76 100 SW3       30.02F
MARATHON       PTCLDY    82  75  79 CALM      30.04S
BOCA CHICA NAS CLEAR     80  76  87 CALM      30.04F
KEY WEST INTL  CLEAR     82  77  84 N3        30.05F HX  90

...INTERNATIONAL WEATHER...

CITY           SKY/WX    TMP DP  RH WIND       PRES   REMARKS
NASSAU BAHAMAS PTCLDY    79  73  83 CALM      30.06F
CANCUN MEXICO  PTCLDY    81  77  89 E7        30.01F
COZUMEL MEXICO PTCLDY    77  73  88 CALM      29.99S

ADJACENT COASTAL WATERS...

STATION/POSITION TIME  SKY/WX   TEMP    WIND        PRES    WAVE
                                AIR SEA DIR/SP/G            HT/PER
                 (UTC)          (F)     (DEG/KT/KT) (MB)    (FT/S)
PULASKI SHOAL LI 0600            81     110/  5/  5 1017.3F
SAND KEY         0550            82      40/  5/  6 1018.0F
LONG KEY         0500            84 89  300/  2/  4 1017.4F
MOLASSES REEF    0500            84 83  350/  3/  4 1017.4F
FOWEY ROCKS      0500            82 81  260/  7/  7 1017.6F
Buoy 42097       0600                                 N/A     2/ 7

$$




USA.gov is the U.S. government's official web portal to all federal, state and local government web resources and services.